Regional Weather Roundup
Issued by NWS

Home | Current Version | Previous Version | Text Only | Print | Product List | Glossary Off
Versions: 1 2 3 4 5 6 7 8 9 10 11 12 13 14 15 16 17 18 19 20 21 22 23 24 25 26 27 28 29 30 31 32 33 34 35 36 37 38 39 40 41 42 43 44 45 46 47 48 49 50

000
ASUS43 KLMK 281802
RWRKY
KENTUCKY REGIONAL WEATHER ROUNDUP
NATIONAL WEATHER SERVICE LOUISVILLE KY
100 PM EST WED JAN 28 2015

NOTE "FAIR" INDICATES FEW OR NO CLOUDS BELOW 12,000 FEET
WITH NO SIGNIFICANT WEATHER AND/OR OBSTRUCTIONS TO VISIBILITY.

KYZ001>023-026-027-061>063-070>075-281900-
WESTERN AND SOUTH CENTRAL KENTUCKY

CITY           SKY/WX    TMP DP  RH WIND       PRES   REMARKS
PADUCAH        FAIR      42  30  62 S8        30.27F
HENDERSON      SUNNY     37  21  52 SE10G16   30.29F WCI  30
OWENSBORO      SUNNY     38  20  48 S7        30.31F WCI  33
HOPKINSVILLE   SUNNY     42  24  49 SE9       30.28F
BOWLING GREEN  SUNNY     39  16  39 E6        30.32F WCI  35
GLASGOW        NOT AVBL
$$

KYZ024-025-028>034-038-045-046-053-281900-
NORTH CENTRAL KENTUCKY

CITY           SKY/WX    TMP DP  RH WIND       PRES   REMARKS
LOUISVILLE/SDF PTSUNNY   35  11  36 E8        30.33F WCI  29
LOUISVILLE/LOU SUNNY     34  12  40 E7        30.33F WCI  28
FORT KNOX      SUNNY     34  14  42 E10       30.29F WCI  26
$$

KYZ035>037-039>044-047>052-055>060-089>105-281900-
NORTHEAST KENTUCKY

CITY           SKY/WX    TMP DP  RH WIND       PRES   REMARKS
LEXINGTON      SUNNY     31  17  56 SE8       30.33F WCI  23
COVINGTON      PTSUNNY   31  17  56 SE8       30.33F WCI  23
FRANKFORT      SUNNY     33  16  49 SE10      30.33F WCI  25
$$

KYZ054-064>069-076>088-106>120-281900-
SOUTHEAST KENTUCKY

CITY           SKY/WX    TMP DP  RH WIND       PRES   REMARKS
JACKSON        SUNNY     30  16  56 VRB3      30.32F
LONDON         SUNNY     34  15  46 E5        30.32F WCI  30
SOMERSET       NOT AVBL
MIDDLESBORO    SUNNY     36  19  49 NE3       30.31F
MONTICELLO     CLEAR     36  15  42 E3        30.35F
$$



USA.gov is the U.S. government's official web portal to all federal, state and local government web resources and services.